RSC33MY GCLA-GCXO

Flight info

Callsign RSC33MY
Flight time 0h 28m
Altitude 13000
Route TFN
Aircraft AT76/M-SDFGIRY/S

Departure

Time 2026-04-28 21:07
Airport La Palma Airport (GCLA)

Arrival

Time 2026-04-28 21:36
Airport Tenerife Norte-Ciudad de La Laguna Airport (GCXO)
Time Latitude Longitude Altitude Speed Heading
2026-04-28 20:38 28.62200 -17.75355 111 ft 0 kts 89°
2026-04-28 21:02 28.62200 -17.75349 111 ft 0 kts 89°
2026-04-28 21:03 28.62200 -17.75364 109 ft 5 kts 89°
2026-04-28 21:03 28.62199 -17.75419 108 ft 8 kts 105°
2026-04-28 21:04 28.62193 -17.75434 108 ft 7 kts 187°
2026-04-28 21:04 28.62111 -17.75443 109 ft 14 kts 197°
2026-04-28 21:04 28.62078 -17.75521 112 ft 10 kts 248°
2026-04-28 21:04 28.62021 -17.75549 114 ft 10 kts 179°
2026-04-28 21:05 28.61946 -17.75547 113 ft 12 kts 179°
2026-04-28 21:05 28.61858 -17.75545 111 ft 14 kts 179°
2026-04-28 21:05 28.61760 -17.75545 109 ft 15 kts 180°
2026-04-28 21:05 28.61661 -17.75573 108 ft 15 kts 174°
2026-04-28 21:06 28.61643 -17.75530 108 ft 1 kts 11°
2026-04-28 21:06 28.61650 -17.75532 108 ft 2 kts 344°
2026-04-28 21:06 28.61664 -17.75540 108 ft 4 kts 345°
2026-04-28 21:06 28.61815 -17.75544 111 ft 49 kts 359°
2026-04-28 21:07 28.62356 -17.75554 110 ft 104 kts 358°
2026-04-28 21:07 28.63201 -17.75575 289 ft 128 kts 358°
2026-04-28 21:07 28.64118 -17.75400 638 ft 141 kts 23°
2026-04-28 21:07 28.64951 -17.74707 920 ft 157 kts 48°
2026-04-28 21:08 28.65485 -17.73546 1046 ft 181 kts 73°
2026-04-28 21:08 28.65822 -17.72188 1678 ft 169 kts 69°
2026-04-28 21:08 28.66287 -17.70989 2123 ft 177 kts 62°
2026-04-28 21:08 28.66869 -17.69663 2305 ft 193 kts 62°
2026-04-28 21:09 28.67491 -17.68282 2557 ft 198 kts 61°
2026-04-28 21:09 28.68140 -17.66884 2840 ft 201 kts 61°
2026-04-28 21:09 28.68795 -17.65474 3143 ft 202 kts 61°
2026-04-28 21:09 28.69459 -17.64056 3445 ft 204 kts 61°
2026-04-28 21:10 28.70118 -17.62622 3757 ft 205 kts 62°
2026-04-28 21:10 28.70744 -17.61172 4054 ft 202 kts 70°
2026-04-28 21:10 28.70799 -17.59572 4318 ft 205 kts 98°
2026-04-28 21:10 28.70563 -17.57962 4619 ft 207 kts 100°
2026-04-28 21:11 28.70300 -17.56348 4921 ft 208 kts 101°
2026-04-28 21:11 28.70042 -17.54728 5212 ft 208 kts 100°
2026-04-28 21:11 28.69808 -17.53118 5497 ft 209 kts 98°
2026-04-28 21:11 28.69596 -17.51483 5775 ft 209 kts 98°
2026-04-28 21:12 28.69392 -17.49849 6139 ft 205 kts 98°
2026-04-28 21:12 28.69199 -17.48276 6592 ft 198 kts 97°
2026-04-28 21:12 28.69010 -17.46724 6901 ft 198 kts 97°
2026-04-28 21:12 28.68817 -17.45170 7194 ft 198 kts 97°
2026-04-28 21:13 28.68623 -17.43609 7466 ft 200 kts 97°
2026-04-28 21:13 28.68429 -17.42041 7745 ft 200 kts 97°
2026-04-28 21:13 28.68232 -17.40470 8025 ft 201 kts 97°
2026-04-28 21:13 28.68038 -17.38890 8299 ft 202 kts 97°
2026-04-28 21:14 28.67841 -17.37307 8568 ft 203 kts 97°
2026-04-28 21:14 28.67642 -17.35715 8832 ft 203 kts 97°
2026-04-28 21:14 28.67443 -17.34117 9093 ft 204 kts 97°
2026-04-28 21:14 28.67245 -17.32531 9365 ft 205 kts 97°
2026-04-28 21:15 28.67045 -17.30921 9629 ft 206 kts 97°
2026-04-28 21:15 28.66843 -17.29305 9891 ft 206 kts 97°
2026-04-28 21:15 28.66640 -17.27681 10113 ft 208 kts 97°
2026-04-28 21:15 28.66438 -17.26050 10343 ft 208 kts 97°
2026-04-28 21:16 28.66233 -17.24412 10565 ft 209 kts 97°
2026-04-28 21:16 28.66027 -17.22773 10796 ft 210 kts 97°
2026-04-28 21:16 28.65821 -17.21126 11012 ft 210 kts 97°
2026-04-28 21:16 28.65612 -17.19471 11212 ft 212 kts 98°
2026-04-28 21:17 28.65398 -17.17765 11226 ft 223 kts 98°
2026-04-28 21:17 28.65173 -17.15980 11235 ft 232 kts 97°
2026-04-28 21:17 28.64939 -17.14124 11194 ft 241 kts 97°
2026-04-28 21:17 28.64698 -17.12208 11176 ft 247 kts 98°
2026-04-28 21:18 28.64450 -17.10252 11167 ft 252 kts 98°
2026-04-28 21:18 28.64202 -17.08295 11161 ft 255 kts 98°
2026-04-28 21:18 28.63950 -17.06289 11162 ft 257 kts 98°
2026-04-28 21:18 28.63693 -17.04263 11158 ft 259 kts 98°
2026-04-28 21:19 28.63435 -17.02229 11157 ft 260 kts 98°
2026-04-28 21:19 28.63175 -17.00185 11157 ft 261 kts 98°
2026-04-28 21:19 28.62914 -16.98137 11159 ft 262 kts 97°
2026-04-28 21:19 28.62655 -16.96085 11156 ft 262 kts 98°
2026-04-28 21:20 28.62392 -16.94028 11157 ft 263 kts 98°
2026-04-28 21:20 28.62128 -16.91968 11157 ft 263 kts 97°
2026-04-28 21:20 28.61868 -16.89910 11158 ft 263 kts 98°
2026-04-28 21:20 28.61604 -16.87846 11161 ft 263 kts 98°
2026-04-28 21:21 28.61338 -16.85783 11160 ft 263 kts 98°
2026-04-28 21:21 28.61074 -16.83718 11158 ft 263 kts 98°
2026-04-28 21:21 28.60812 -16.81680 11163 ft 263 kts 98°
2026-04-28 21:21 28.60545 -16.79617 11160 ft 263 kts 98°
2026-04-28 21:22 28.60280 -16.77556 11161 ft 263 kts 98°
2026-04-28 21:22 28.60016 -16.75492 11162 ft 263 kts 98°
2026-04-28 21:22 28.59750 -16.73430 11165 ft 263 kts 98°
2026-04-28 21:22 28.59572 -16.72062 11167 ft 263 kts 98°
2026-04-28 21:23 28.59215 -16.69305 11167 ft 263 kts 98°
2026-04-28 21:23 28.58949 -16.67246 11168 ft 263 kts 98°
2026-04-28 21:23 28.58681 -16.65185 11169 ft 263 kts 98°
2026-04-28 21:23 28.58415 -16.63120 11172 ft 263 kts 98°
2026-04-28 21:24 28.58146 -16.61056 11171 ft 263 kts 98°
2026-04-28 21:24 28.57881 -16.59022 11175 ft 264 kts 98°
2026-04-28 21:24 28.57613 -16.56960 11174 ft 264 kts 98°
2026-04-28 21:24 28.57342 -16.54896 11171 ft 264 kts 98°
2026-04-28 21:25 28.57072 -16.52833 11174 ft 264 kts 98°
2026-04-28 21:25 28.56804 -16.50772 11174 ft 264 kts 98°
2026-04-28 21:25 28.56534 -16.48710 11173 ft 264 kts 98°
2026-04-28 21:25 28.56263 -16.46649 11175 ft 263 kts 98°
2026-04-28 21:26 28.55993 -16.44583 11175 ft 263 kts 98°
2026-04-28 21:26 28.55722 -16.42524 11175 ft 263 kts 98°
2026-04-28 21:26 28.55446 -16.40416 10862 ft 276 kts 98°
2026-04-28 21:26 28.55156 -16.38221 10525 ft 285 kts 98°
2026-04-28 21:27 28.54857 -16.35964 10207 ft 292 kts 98°
2026-04-28 21:27 28.54658 -16.34450 9997 ft 293 kts 98°
2026-04-28 21:27 28.54262 -16.31444 9524 ft 287 kts 98°
2026-04-28 21:27 28.53968 -16.29214 9158 ft 284 kts 97°
2026-04-28 21:28 28.53672 -16.27012 8799 ft 277 kts 98°
2026-04-28 21:28 28.53177 -16.24925 8442 ft 271 kts 110°
2026-04-28 21:28 28.52475 -16.22959 8100 ft 266 kts 112°
2026-04-28 21:28 28.51756 -16.21032 7751 ft 263 kts 112°
2026-04-28 21:29 28.51286 -16.19735 7520 ft 261 kts 111°
2026-04-28 21:29 28.50638 -16.17846 7186 ft 258 kts 110°
2026-04-28 21:29 28.50002 -16.15945 6852 ft 256 kts 110°
2026-04-28 21:29 28.49374 -16.14064 6510 ft 253 kts 110°
2026-04-28 21:30 28.48748 -16.12196 6163 ft 252 kts 110°
2026-04-28 21:30 28.48130 -16.10343 5810 ft 250 kts 110°
2026-04-28 21:30 28.47267 -16.08682 5441 ft 245 kts 137°
2026-04-28 21:30 28.45759 -16.07837 5108 ft 243 kts 172°
2026-04-28 21:31 28.44109 -16.08072 4767 ft 239 kts 200°
2026-04-28 21:31 28.42580 -16.08803 4413 ft 238 kts 206°
2026-04-28 21:31 28.41193 -16.09714 4228 ft 227 kts 224°
2026-04-28 21:31 28.40469 -16.11218 4148 ft 215 kts 263°
2026-04-28 21:32 28.40686 -16.12826 4107 ft 202 kts 293°
2026-04-28 21:32 28.41242 -16.14257 4078 ft 194 kts 296°
2026-04-28 21:32 28.41814 -16.15618 4073 ft 187 kts 297°
2026-04-28 21:32 28.42386 -16.16934 4079 ft 184 kts 297°
2026-04-28 21:33 28.42956 -16.18243 4074 ft 186 kts 297°
2026-04-28 21:33 28.43498 -16.19584 4081 ft 187 kts 292°
2026-04-28 21:33 28.43934 -16.20969 4078 ft 186 kts 289°
2026-04-28 21:33 28.44351 -16.22356 3965 ft 191 kts 290°
2026-04-28 21:34 28.44823 -16.23772 3719 ft 186 kts 292°
2026-04-28 21:34 28.45277 -16.25098 3487 ft 169 kts 291°
2026-04-28 21:34 28.45670 -16.26302 3264 ft 157 kts 291°
2026-04-28 21:34 28.46023 -16.27403 3080 ft 144 kts 291°
2026-04-28 21:35 28.46361 -16.28426 2931 ft 135 kts 291°
2026-04-28 21:35 28.46697 -16.29428 2659 ft 136 kts 291°
2026-04-28 21:35 28.47017 -16.30412 2476 ft 130 kts 291°
2026-04-28 21:35 28.47333 -16.31365 2297 ft 129 kts 291°
2026-04-28 21:36 28.47646 -16.32306 2108 ft 127 kts 291°
2026-04-28 21:36 28.47953 -16.33208 2027 ft 110 kts 292°
2026-04-28 21:36 28.48110 -16.33681 2031 ft 43 kts 291°
2026-04-28 21:36 28.48202 -16.33957 2042 ft 32 kts 287°
2026-04-28 21:37 28.48299 -16.34143 2041 ft 24 kts 322°
2026-04-28 21:37 28.48341 -16.34181 2041 ft 3 kts 320°
2026-04-28 21:37 28.48354 -16.34193 2042 ft 2 kts 320°
2026-04-28 21:37 28.48393 -16.34232 2046 ft 15 kts 318°
2026-04-28 21:38 28.48451 -16.34360 2046 ft 18 kts 289°
2026-04-28 21:38 28.48485 -16.34464 2047 ft 10 kts 290°
2026-04-28 21:38 28.48503 -16.34519 2048 ft 9 kts 290°
2026-04-28 21:38 28.48529 -16.34599 2050 ft 17 kts 290°
2026-04-28 21:39 28.48588 -16.34777 2051 ft 30 kts 288°
2026-04-28 21:39 28.48657 -16.34985 2055 ft 13 kts 290°
2026-04-28 21:39 28.48666 -16.35012 2056 ft 3 kts 290°
2026-04-28 21:39 28.48677 -16.35028 2056 ft 2 kts 327°
2026-04-28 21:40 28.48694 -16.35028 2056 ft 3 kts 11°
2026-04-28 21:40 28.48723 -16.35017 2056 ft 5 kts 21°
2026-04-28 21:40 28.48762 -16.35000 2034 ft 3 kts 19°